STARLINK-30233, 57302

Orbit data source: Space-Track

STARLINK-30233, 57302 is a payload satellite owned by SpaceX/Seattle (US) in LEO that was launched on Mon, 10 Jul 2023 UTC via an FALCON 9 launch vehicle from the Air Force Eastern Test Range (AFETR). Payload-class satellites include a variety of spacecraft equipped with specific instruments for various scientific and technological missions. These include communications satellites like Starlink; space stations such as the ISS; scientific satellites like the Hubble; Earth observation satellites from companies like Planet Labs, Umbra, and HawkEye 360; GPS; miniature CubeSats for education and research; and military/defense satellites.

Loading next visibility...
Identifier
57302, 2023-096N
Orbit
LEO
Country
Flag of USUS
Related business
Manufacturer
SpaceX/Seattle
Mission
Operational Commercial Communications
Bus & Motor
STARLINK V2M, Unknown motor
Mass
730 kg wet, ~700 kg dry
Launch date (UTC)
2023-07-10 (3 years ago)
Launch vehicle
FALCON 9
Launch site
Air Force Eastern Test Range (AFETR)
Object type
Payload
Rocket body
Debris
Shape & HBR
Box + 2 Pan, 17.7 m
Radar Cross Section
33.884 m², Large (>1 m²)

Expand to show TLE details & history
Last TLE update: 6 hours ago

TLE from 6 hours ago
0 STARLINK-30233
1 57302U 23096N   26236.58336806  .00751952  00000-0  16665-1 0  9999
2 57302  43.0005 354.1384 0001726 295.9558  86.8216 15.40482738  5859
Epoch: 2026-08-24T14:00Z
TLE epoch observation values (Epoch: 2026-08-24T14:00:03.000Z)
Latitude
15.35841°
Longitude
-171.70536°
Altitude
443.69 km
Speed
7.649 km/s
True Right ascension
00h 44m 40s
True Declination
15° 16' 00"
Sunlit
Object was in full shadow at epoch
Visualization orbit readout
Latitude
Unknown
Longitude
Unknown
Altitude
Unknown
Speed
Unknown
Apparent Right ascension
Unknown
Apparent Declination
Unknown
Sunlit
N/A
Visualization observer readout
Local Sidereal Time
11:41:26
Azimuth
Unknown
Elevation
Unknown
Doppler factor
Unknown
Orbital elements
Apogee altitude
447.818 km
Perigee altitude
445.462 km
Semi-major axis
6,824.777 km
Eccentricity
0.00017
Inclination
43.0005°
RAAN
354.1384°
Arg. of periapsis
295.9558°
True anomaly
86.84135°
Mean anomaly
86.8216°
Eccentric anomaly
86.83147°
Mean motion
3.84955 °/min
Orbital period
93.52 mins
BSTAR
0.016665
Loading maneuver chart data...
Computing Atmospheric mass density...

Documentation

Showing up to 5 results
|